• In Netherlands
  • List of Countries
  • For 7 days
  • Water Temperature
  • Satellite Maps
  • Weather Map
  • Weather Widgets
  • user-avatar
    Login

    Hourly Weather Pamporovo

    Today, 23 April, Sunday

    Time Temperature Precipitation Wind Pressure Humidity
    00:00 -7°C° 0 mm 2 mps 620 mmHg 77%
    01:00 -7°C° 0 mm 2 mps 619 mmHg 77%
    02:00 -7°C° 0 mm 2 mps 619 mmHg 77%
    03:00 -7°C° 0 mm 2 mps 619 mmHg 78%
    04:00 -7°C° 0 mm 2 mps 619 mmHg 80%
    05:00 -7°C° 0 mm 2 mps 619 mmHg 81%
    06:00 -4°C° 0 mm 2 mps 620 mmHg 74%
    07:00 -2°C° 0 mm 2 mps 621 mmHg 67%
    08:00 +1°C° 0 mm 2 mps 623 mmHg 60%
    09:00 +3°C° 0 mm 2 mps 623 mmHg 55%
    10:00 +5°C° 0 mm 2 mps 624 mmHg 50%
    11:00 +7°C° 0 mm 2 mps 625 mmHg 45%
    12:00 +7°C° 0.2 mm 3 mps 625 mmHg 45%
    13:00 +7°C° 0.2 mm 3 mps 625 mmHg 46%
    14:00 +8°C° 0.2 mm 3 mps 625 mmHg 47%
    15:00 +7°C° 0.8 mm 3 mps 625 mmHg 56%
    16:00 +4°C° 0.8 mm 3 mps 624 mmHg 65%
    17:00 +4°C° 0.8 mm 2 mps 624 mmHg 75%
    18:00 +2°C° 0.5 mm 2 mps 624 mmHg 80%
    19:00 -1°C° 0.5 mm 2 mps 623 mmHg 85%
    20:00 -1°C° 0.5 mm 1 mps 623 mmHg 91%
    21:00 -1°C° 0.2 mm 1 mps 624 mmHg 90%
    22:00 -1°C° 0.2 mm 1 mps 624 mmHg 90%
    23:00 -1°C° 0.2 mm 1 mps 625 mmHg 90%

    Tomorrow, 24 April, Monday

    Time Temperature Precipitation Wind Pressure Humidity
    00:00 -2°C° 0 mm 1 mps 625 mmHg 89%
    01:00 -5°C° 0 mm 2 mps 624 mmHg 89%
    02:00 -6°C° 0 mm 2 mps 624 mmHg 88%
    03:00 -6°C° 0 mm 2 mps 624 mmHg 86%
    04:00 -6°C° 0 mm 2 mps 624 mmHg 84%
    05:00 -7°C° 0 mm 2 mps 624 mmHg 83%
    06:00 -5°C° 0 mm 2 mps 625 mmHg 76%
    07:00 -3°C° 0 mm 2 mps 626 mmHg 70%
    08:00 -1°C° 0 mm 2 mps 627 mmHg 63%
    09:00 +2°C° 0 mm 2 mps 628 mmHg 55%
    10:00 +4°C° 0 mm 2 mps 629 mmHg 47%
    11:00 +5°C° 0 mm 2 mps 630 mmHg 39%
    12:00 +6°C° 0 mm 2 mps 630 mmHg 38%
    13:00 +7°C° 0 mm 2 mps 630 mmHg 38%
    14:00 +7°C° 0 mm 3 mps 630 mmHg 37%
    15:00 +7°C° 0 mm 3 mps 629 mmHg 40%
    16:00 +7°C° 0 mm 2 mps 629 mmHg 43%
    17:00 +6°C° 0 mm 2 mps 629 mmHg 46%
    18:00 +3°C° 0 mm 2 mps 628 mmHg 59%
    19:00 +1°C° 0 mm 1 mps 627 mmHg 73%
    20:00 -2°C° 0 mm 1 mps 625 mmHg 87%
    21:00 -3°C° 0 mm 1 mps 626 mmHg 88%
    22:00 -3°C° 0 mm 1 mps 626 mmHg 89%
    23:00 -3°C° 0 mm 1 mps 626 mmHg 90%

    Day after tomorrow, 25 April, Tuesday

    Time Temperature Precipitation Wind Pressure Humidity
    00:00 -4°C° 0 mm 1 mps 626 mmHg 91%
    01:00 -4°C° 0 mm 1 mps 626 mmHg 91%
    02:00 -4°C° 0 mm 1 mps 626 mmHg 92%
    03:00 -4°C° 0 mm 1 mps 625 mmHg 92%
    04:00 -4°C° 0 mm 1 mps 625 mmHg 92%
    05:00 -4°C° 0 mm 1 mps 625 mmHg 92%
    06:00 -1°C° 0 mm 1 mps 626 mmHg 82%
    07:00 +2°C° 0 mm 1 mps 628 mmHg 72%
    08:00 +4°C° 0 mm 1 mps 629 mmHg 62%
    09:00 +5°C° 0 mm 2 mps 629 mmHg 56%
    10:00 +7°C° 0 mm 2 mps 630 mmHg 51%
    11:00 +8°C° 0 mm 2 mps 630 mmHg 46%
    12:00 +9°C° 0 mm 3 mps 630 mmHg 46%
    13:00 +9°C° 0 mm 3 mps 630 mmHg 45%
    14:00 +9°C° 0 mm 3 mps 630 mmHg 45%
    15:00 +9°C° 0 mm 3 mps 629 mmHg 47%
    16:00 +9°C° 0 mm 3 mps 629 mmHg 49%
    17:00 +8°C° 0 mm 2 mps 628 mmHg 51%
    18:00 +6°C° 0 mm 2 mps 627 mmHg 60%
    19:00 +3°C° 0 mm 2 mps 626 mmHg 70%
    20:00 +1°C° 0 mm 1 mps 625 mmHg 80%
    21:00 0°C° 0 mm 1 mps 625 mmHg 81%
    22:00 0°C° 0 mm 1 mps 625 mmHg 82%
    23:00 -1°C° 0 mm 1 mps 625 mmHg 83%

    26 April, Wednesday

    Time Temperature Precipitation Wind Pressure Humidity
    00:00 -1°C° 0 mm 1 mps 625 mmHg 84%
    01:00 -1°C° 0 mm 1 mps 624 mmHg 84%
    02:00 -2°C° 0 mm 1 mps 624 mmHg 85%
    03:00 -2°C° 0 mm 1 mps 624 mmHg 85%
    04:00 -2°C° 0 mm 1 mps 623 mmHg 86%
    05:00 -3°C° 0 mm 1 mps 623 mmHg 86%
    06:00 0°C° 0 mm 1 mps 625 mmHg 75%
    07:00 +4°C° 0 mm 1 mps 626 mmHg 64%
    08:00 +6°C° 0 mm 0 mps 627 mmHg 54%
    09:00 +8°C° 0 mm 1 mps 628 mmHg 49%
    10:00 +9°C° 0 mm 2 mps 628 mmHg 45%
    11:00 +12°C° 0 mm 2 mps 629 mmHg 41%
    12:00 +12°C° 0 mm 2 mps 629 mmHg 40%
    13:00 +12°C° 0 mm 3 mps 629 mmHg 39%
    14:00 +12°C° 0 mm 3 mps 629 mmHg 38%
    15:00 +12°C° 0 mm 3 mps 628 mmHg 41%
    16:00 +11°C° 0 mm 3 mps 628 mmHg 43%
    17:00 +11°C° 0 mm 3 mps 627 mmHg 45%
    18:00 +8°C° 0 mm 2 mps 626 mmHg 56%
    19:00 +5°C° 0 mm 2 mps 625 mmHg 68%
    20:00 +2°C° 0 mm 1 mps 624 mmHg 79%
    21:00 +2°C° 0 mm 1 mps 624 mmHg 80%
    22:00 +2°C° 0 mm 1 mps 624 mmHg 80%
    23:00 +1°C° 0 mm 1 mps 624 mmHg 81%

    27 April, Thursday

    Time Temperature Precipitation Wind Pressure Humidity
    00:00 +1°C° 0 mm 1 mps 624 mmHg 81%
    01:00 +1°C° 0 mm 1 mps 623 mmHg 80%
    02:00 0°C° 0 mm 1 mps 623 mmHg 80%
    03:00 0°C° 0 mm 1 mps 623 mmHg 80%
    04:00 0°C° 0 mm 1 mps 623 mmHg 81%
    05:00 0°C° 0 mm 1 mps 623 mmHg 81%
    06:00 +3°C° 0 mm 1 mps 624 mmHg 71%
    07:00 +6°C° 0 mm 1 mps 625 mmHg 60%
    08:00 +8°C° 0 mm 0 mps 627 mmHg 50%
    09:00 +11°C° 0 mm 1 mps 627 mmHg 46%
    10:00 +12°C° 0 mm 1 mps 628 mmHg 41%
    11:00 +14°C° 0 mm 2 mps 629 mmHg 37%
    12:00 +15°C° 0 mm 2 mps 629 mmHg 36%
    13:00 +16°C° 0 mm 2 mps 628 mmHg 35%
    14:00 +16°C° 0 mm 3 mps 628 mmHg 35%
    15:00 +16°C° 0 mm 3 mps 628 mmHg 37%
    16:00 +14°C° 0 mm 3 mps 627 mmHg 40%
    17:00 +13°C° 0 mm 3 mps 627 mmHg 43%
    18:00 +10°C° 0 mm 2 mps 626 mmHg 55%
    19:00 +7°C° 0 mm 2 mps 624 mmHg 66%
    20:00 +4°C° 0 mm 1 mps 623 mmHg 78%
    21:00 +4°C° 0 mm 1 mps 623 mmHg 78%
    22:00 +4°C° 0 mm 1 mps 623 mmHg 79%
    23:00 +3°C° 0 mm 1 mps 623 mmHg 79%

    28 April, Friday

    Time Temperature Precipitation Wind Pressure Humidity
    00:00 +3°C° 0 mm 1 mps 623 mmHg 79%
    01:00 +3°C° 0 mm 1 mps 622 mmHg 79%
    02:00 +2°C° 0 mm 1 mps 622 mmHg 79%
    03:00 +2°C° 0 mm 1 mps 622 mmHg 78%
    04:00 +2°C° 0 mm 1 mps 621 mmHg 78%
    05:00 +2°C° 0 mm 1 mps 621 mmHg 78%
    06:00 +5°C° 0 mm 1 mps 622 mmHg 70%
    07:00 +7°C° 0 mm 1 mps 624 mmHg 62%
    08:00 +10°C° 0 mm 1 mps 625 mmHg 54%
    09:00 +12°C° 0 mm 1 mps 625 mmHg 49%
    10:00 +14°C° 0 mm 2 mps 626 mmHg 44%
    11:00 +16°C° 0 mm 2 mps 626 mmHg 39%
    12:00 +16°C° 0 mm 2 mps 626 mmHg 38%
    13:00 +17°C° 0 mm 3 mps 626 mmHg 37%
    14:00 +18°C° 0 mm 3 mps 626 mmHg 36%
    15:00 +17°C° 0 mm 3 mps 625 mmHg 38%
    16:00 +16°C° 0 mm 3 mps 624 mmHg 41%
    17:00 +14°C° 0 mm 3 mps 624 mmHg 44%
    18:00 +11°C° 0 mm 3 mps 623 mmHg 52%
    19:00 +8°C° 0 mm 2 mps 622 mmHg 60%
    20:00 +5°C° 0 mm 2 mps 620 mmHg 67%
    21:00 +5°C° 0 mm 2 mps 620 mmHg 68%
    22:00 +5°C° 0 mm 2 mps 620 mmHg 68%
    23:00 +4°C° 0 mm 2 mps 620 mmHg 68%
    Show more